CW5307 Weather Reports


time (UTC)temp
C
wind
direction
speed
KPH
gust
KPH
rain 1hr
cm
rain 24hr
cm
rain mn
cm
humidity
%
barometer
mb
20260504201741 26 171 11.3 14.5 0.00 0.00 0.00 24 1006.8
20260504201241 26 192 8.0 12.9 0.00 0.00 0.00 24 1007.0
20260504200745 26 206 3.2 16.1 0.00 0.00 0.00 23 1007.0
20260504200242 26 292 4.8 12.9 0.00 0.00 0.00 25 1007.0
20260504195751 26 153 3.2 17.7 0.00 0.00 0.00 24 1007.1
20260504195246 26 132 6.4 24.1 0.00 0.00 0.00 22 1007.1
20260504194742 26 153 8.0 14.5 0.00 0.00 0.00 27 1007.1
20260504194244 26 194 3.2 12.9 0.00 0.00 0.00 23 1007.5
20260504193744 26 146 0.0 16.1 0.00 0.00 0.00 25 1007.5
20260504193247 26 203 8.0 12.9 0.00 0.00 0.00 25 1007.5
20260504192741 26 258 0.0 11.3 0.00 0.00 0.00 25 1007.6
20260504192241 26 196 3.2 8.0 0.00 0.00 0.00 28 1007.6
20260504191747 26 200 6.4 12.9 0.00 0.00 0.00 25 1007.6
20260504191247 26 156 8.0 22.5 0.00 0.00 0.00 25 1007.9
20260504190741 26 171 8.0 16.1 0.00 0.00 0.00 25 1007.9
20260504190241 26 173 11.3 16.1 0.00 0.00 0.00 25 1007.9
20260504185741 26 214 4.8 14.5 0.00 0.00 0.00 25 1008.1
20260504185241 25 263 4.8 16.1 0.00 0.00 0.00 26 1008.1
20260504184747 26 165 9.7 17.7 0.00 0.00 0.00 24 1008.1
20260504184244 26 224 3.2 20.9 0.00 0.00 0.00 23 1008.0
20260504183747 26 164 6.4 30.6 0.00 0.00 0.00 24 1008.0
20260504183244 26 87 12.9 24.1 0.00 0.00 0.00 25 1008.0
20260504182741 26 207 6.4 19.3 0.00 0.00 0.00 25 1008.5
20260504182241 26 96 3.2 14.5 0.00 0.00 0.00 26 1008.5
20260504181741 26 241 6.4 12.9 0.00 0.00 0.00 24 1008.5
20260504181241 26 167 3.2 14.5 0.00 0.00 0.00 22 1008.5
20260504180745 26 173 6.4 17.7 0.00 0.00 0.00 22 1008.5
20260504180241 26 128 6.4 17.7 0.00 0.00 0.00 23 1008.5
20260504175742 26 154 14.5 16.1 0.00 0.00 0.00 23 1008.6
20260504175244 26 156 9.7 14.5 0.00 0.00 0.00 22 1008.6
20260504174745 26 211 1.6 11.3 0.00 0.00 0.00 24 1008.6
20260504174242 25 297 3.2 14.5 0.00 0.00 0.00 24 1008.8
20260504173744 25 267 3.2 19.3 0.00 0.00 0.00 23 1008.8
20260504173241 25 213 6.4 17.7 0.00 0.00 0.00 24 1008.8
20260504172744 25 158 8.0 12.9 0.00 0.00 0.00 22 1009.0
20260504172242 25 170 9.7 19.3 0.00 0.00 0.00 23 1009.0
20260504171741 25 300 1.6 11.3 0.00 0.00 0.00 25 1009.0
20260504171244 25 313 3.2 12.9 0.00 0.00 0.00 23 1009.3
20260504170741 25 271 8.0 12.9 0.00 0.00 0.00 24 1009.3
20260504170247 25 187 1.6 16.1 0.00 0.00 0.00 25 1009.3
20260504160248 23 233 4.8 14.5 0.00 0.00 0.00 27 1010.0
20260504150745 21 185 4.8 16.1 0.00 0.00 0.00 27 1010.5
20260504150244 21 214 4.8 17.7 0.00 0.00 0.00 28 1010.5
20260504141241 16 159 8.0 11.3 0.00 0.00 0.00 41 1010.6
20260504140747 16 169 3.2 11.3 0.00 0.00 0.00 45 1010.5
20260504140241 15 163 1.6 9.7 0.00 0.00 0.00 46 1010.5
20260504130741 12 259 3.2 9.7 0.00 0.00 0.00 56 1010.9
20260504130241 12 179 9.7 9.7 0.00 0.00 0.00 56 1010.9
20260504120241 9 213 6.4 8.0 0.00 0.00 0.00 67 1011.4
20260504110246 7 257 0.0 3.2 0.00 0.00 0.00 73 1011.5
20260504100244 7 257 0.0 0.0 0.00 0.00 0.00 76 1011.5
20260504081744 7 257 0.0 0.0 0.00 0.00 0.00 76 1012.0
20260504081247 7 257 0.0 0.0 0.00 0.00 0.00 76 1012.0
20260504080741 7 257 0.0 0.0 0.00 0.00 0.00 76 1012.0
20260504080244 7 257 0.0 0.0 0.00 0.00 0.00 76 1012.0
20260504070241 6 257 0.0 3.2 0.00 0.00 0.00 76 1012.2
20260504060241 5 257 0.0 1.6 0.00 0.00 0.00 75 1012.3
20260504050742 6 257 0.0 1.6 0.00 0.00 0.00 72 1012.3
20260504050241 6 257 0.0 0.0 0.00 0.00 0.00 72 1012.3
20260504045741 6 257 0.0 0.0 0.00 0.00 0.00 72 1012.3
20260504045242 6 257 0.0 1.6 0.00 0.00 0.00 71 1012.3
20260504044748 6 257 1.6 1.6 0.00 0.00 0.00 71 1012.3
20260504044244 6 257 0.0 0.0 0.00 0.00 0.00 71 1012.3
20260504043744 6 257 0.0 0.0 0.00 0.00 0.00 71 1012.3
20260504043244 6 257 0.0 1.6 0.00 0.00 0.00 70 1012.3
20260504042747 6 257 1.6 1.6 0.00 0.00 0.00 70 1012.4
20260504042241 6 257 0.0 0.0 0.00 0.00 0.00 70 1012.4
20260504041745 6 257 0.0 1.6 0.00 0.00 0.00 69 1012.4
20260504041241 6 257 0.0 3.2 0.00 0.00 0.00 69 1012.3
20260504040748 6 257 0.0 0.0 0.00 0.00 0.00 69 1012.3
20260504040242 6 257 0.0 0.0 0.00 0.00 0.00 68 1012.3
20260504035741 6 257 0.0 0.0 0.00 0.00 0.00 68 1012.2
20260504035242 6 257 0.0 1.6 0.00 0.00 0.00 68 1012.2
20260504034741 6 257 0.0 0.0 0.00 0.00 0.00 67 1012.2
20260504034241 6 257 0.0 0.0 0.00 0.00 0.00 67 1012.0
20260504033742 6 257 0.0 0.0 0.00 0.00 0.00 67 1012.1
20260504033244 7 257 0.0 1.6 0.00 0.00 0.00 66 1012.1
20260504032748 7 257 0.0 0.0 0.00 0.00 0.00 66 1011.9
20260504032241 7 257 0.0 1.6 0.00 0.00 0.00 66 1011.9
20260504031741 7 257 0.0 1.6 0.00 0.00 0.00 65 1011.9
20260504031244 7 257 1.6 1.6 0.00 0.00 0.00 65 1011.8
20260504030747 7 257 0.0 0.0 0.00 0.00 0.00 65 1011.8
20260504030244 7 257 0.0 0.0 0.00 0.00 0.00 63 1011.8
20260504025744 7 257 0.0 1.6 0.00 0.00 0.00 63 1011.8
20260504025241 8 257 0.0 1.6 0.00 0.00 0.00 62 1011.8
20260504024748 8 257 0.0 0.0 0.00 0.00 0.00 62 1011.8
20260504024247 8 257 0.0 0.0 0.00 0.00 0.00 62 1011.8
20260504023750 8 257 0.0 0.0 0.00 0.00 0.00 61 1011.8
20260504023241 8 257 0.0 0.0 0.00 0.00 0.00 61 1011.8
20260504022741 8 257 0.0 0.0 0.00 0.00 0.00 60 1011.8
20260504022248 8 257 0.0 1.6 0.00 0.00 0.00 59 1011.8
20260504021745 8 257 0.0 1.6 0.00 0.00 0.00 58 1011.8
20260504021241 9 257 1.6 3.2 0.00 0.00 0.00 57 1011.8
20260504020741 9 257 0.0 0.0 0.00 0.00 0.00 57 1011.8
20260504020247 9 257 0.0 0.0 0.00 0.00 0.00 56 1011.8
20260504015745 10 257 0.0 0.0 0.00 0.00 0.00 56 1011.7
20260504015244 10 257 0.0 0.0 0.00 0.00 0.00 54 1011.7
20260504014747 10 257 0.0 1.6 0.00 0.00 0.00 54 1011.7
20260504014242 10 257 1.6 3.2 0.00 0.00 0.00 53 1011.7
20260504013747 10 257 0.0 0.0 0.00 0.00 0.00 51 1011.7
20260504013241 10 257 0.0 0.0 0.00 0.00 0.00 51 1011.7
20260504012744 10 257 0.0 0.0 0.00 0.00 0.00 50 1011.5
20260504012244 11 257 0.0 0.0 0.00 0.00 0.00 50 1011.5
20260504011744 11 257 0.0 0.0 0.00 0.00 0.00 49 1011.5
20260504011241 11 257 0.0 0.0 0.00 0.00 0.00 49 1011.4
20260504010745 11 257 0.0 1.6 0.00 0.00 0.00 47 1011.4
20260504010242 12 257 0.0 1.6 0.00 0.00 0.00 45 1011.4
20260504005747 12 257 0.0 0.0 0.00 0.00 0.00 45 1011.3
20260504005241 12 257 0.0 0.0 0.00 0.00 0.00 44 1011.3
20260504004742 12 257 0.0 0.0 0.00 0.00 0.00 42 1011.3
20260504004244 12 257 0.0 0.0 0.00 0.00 0.00 42 1011.2
20260504003741 13 257 0.0 0.0 0.00 0.00 0.00 42 1011.2
20260504003241 13 257 0.0 0.0 0.00 0.00 0.00 40 1011.2
20260504002747 13 257 0.0 1.6 0.00 0.00 0.00 38 1011.0
20260504002244 14 257 0.0 0.0 0.00 0.00 0.00 34 1011.0
20260504001741 14 257 0.0 0.0 0.00 0.00 0.00 35 1011.0
20260504001241 14 257 0.0 0.0 0.00 0.00 0.00 37 1010.9
20260504000745 15 257 0.0 0.0 0.00 0.00 0.00 34 1010.9
20260504000242 15 257 0.0 1.6 0.00 0.00 0.00 33 1010.9
20260503235741 15 257 0.0 1.6 0.00 0.00 0.00 28 1010.8
20260503235241 15 257 0.0 1.6 0.00 0.00 0.00 27 1010.8
20260503234741 15 257 0.0 3.2 0.00 0.00 0.00 27 1010.8
20260503234250 15 257 0.0 4.8 0.00 0.00 0.00 28 1010.7
20260503233741 15 257 1.6 4.8 0.00 0.00 0.00 27 1010.7
20260503233241 15 257 4.8 9.7 0.00 0.00 0.00 26 1010.7
20260503232741 16 257 1.6 9.7 0.00 0.00 0.00 26 1010.4
20260503232244 16 260 3.2 16.1 0.00 0.00 0.00 25 1010.4
20260503231741 16 269 6.4 14.5 0.00 0.00 0.00 25 1010.4
20260503231241 16 243 4.8 11.3 0.00 0.00 0.00 25 1010.3
20260503230744 16 267 9.7 14.5 0.00 0.00 0.00 25 1010.3
20260503230241 16 225 8.0 17.7 0.00 0.00 0.00 25 1010.3
20260503225742 16 263 3.2 12.9 0.00 0.00 0.00 25 1010.6
20260503225244 16 232 6.4 14.5 0.00 0.00 0.00 24 1010.6
20260503224741 16 257 1.6 11.3 0.00 0.00 0.00 25 1010.6
20260503224241 16 264 3.2 14.5 0.00 0.00 0.00 25 1010.6
20260503223744 16 296 11.3 11.3 0.00 0.00 0.00 25 1010.6
20260503223242 16 342 1.6 17.7 0.00 0.00 0.00 26 1010.6
20260503222747 16 306 6.4 11.3 0.00 0.00 0.00 26 1010.5
20260503222244 16 239 1.6 20.9 0.00 0.00 0.00 24 1010.5
20260503221741 16 282 6.4 16.1 0.00 0.00 0.00 25 1010.5
20260503221244 16 325 3.2 14.5 0.00 0.00 0.00 26 1010.7
20260503220744 16 263 1.6 14.5 0.00 0.00 0.00 25 1010.7
20260503220241 16 13 6.4 17.7 0.00 0.00 0.00 25 1010.7
20260503215741 16 281 9.7 11.3 0.00 0.00 0.00 26 1010.7
20260503215250 16 319 4.8 17.7 0.00 0.00 0.00 24 1010.6
20260503214745 16 42 4.8 19.3 0.00 0.00 0.00 25 1010.6
20260503214241 16 292 9.7 20.9 0.00 0.00 0.00 24 1010.5
20260503213741 17 253 4.8 19.3 0.00 0.00 0.00 25 1010.5
20260503213241 17 268 4.8 12.9 0.00 0.00 0.00 24 1010.5
20260503212747 17 327 6.4 22.5 0.00 0.00 0.00 24 1010.4
20260503212244 17 270 6.4 16.1 0.00 0.00 0.00 25 1010.4
20260503211741 17 24 8.0 14.5 0.00 0.00 0.00 25 1010.4
20260503211241 17 261 6.4 19.3 0.00 0.00 0.00 25 1010.6
20260503210741 17 24 8.0 20.9 0.00 0.00 0.00 25 1010.6
20260503210244 17 246 1.6 16.1 0.00 0.00 0.00 25 1010.6
20260503205747 17 342 14.5 19.3 0.00 0.00 0.00 26 1010.6
20260503205244 17 0 11.3 16.1 0.00 0.00 0.00 26 1010.6
20260503204747 17 332 9.7 12.9 0.00 0.00 0.00 28 1010.6
20260503204247 16 5 9.7 22.5 0.00 0.00 0.00 25 1010.7
20260503203751 17 314 6.4 19.3 0.00 0.00 0.00 25 1010.7
20260503203248 16 238 3.2 22.5 0.00 0.00 0.00 25 1010.7
20260503202746 16 19 6.4 19.3 0.00 0.00 0.00 26 1010.7
20260503202241 17 333 9.7 12.9 0.00 0.00 0.00 25 1010.7